Probability
0 0 0 0 0 0 0 0 0 0 0 0 0 0 0 0 0 0 0 0 0 0 0 0 0 0 0 0 0 0 0 0 0 0 0 0 0 0 0 0 0 0 0
0 0 0 0 0 0 0 0 0 0 0 0 0 0 0 0 0 0 0 0 0 0 0 0 0 0 0 0 0 0 0 0 0 0 0 0 0 0 0 0 0 0 0
0 0 0 0 0 0 0 0 0 0 0 0 0 0 0 0 0 0 0 0 0 0 0 0 0 0 0 0 0 0 0 0 0 0 0 0 0 0 0 0 0 0 0
0 0 0 0 0 0 0 0 0 0 0 0 0 0 0 0 0 0 0 0 0 0 0 0 0 0 0 0 0 0 0 0 0 0 0 0 0 0 0 0 0 0 0
0 0 0 0 0 0 0 0 0 0 0 0 0 0 0 0 0 0 0 0 0 0 0 0 0 0 0 0 0 0 0 0 0 0 0 0 0 0 0 0 0 0 0
0 0 0 0 0 0 0 0 0 0 0 0 0 0 0 0 0 0 0 0 0 0 0 0 0 0 0 0 0 0 0 0 0 0 0 0 0 0 0 0 0 0 0
0 0 0 0 0 0 0 0 0 0 0 0 0 0 0 0 0 0 0 0 0 0 0 0 0 0 0 0 0 0 0 0 0 0 0 0 0 0 0 0 0 0 0
0 0 0 0 0 0 0 0 0 0 0 0 0 0 0 0 0 0 0 0 0 0 0 0 0 0 0 0 0 0 0 0 0 0 0 0 0 0 0 0 0 0 0
0 0 0 0 0 0 0 0 0 0 0 0 0 0 0 0 0 0 0 0 0 0 0 0 0 0 0 0 0 0 0 0 0 0 0 0 0 0 0 0 0 0 0
0 0 0 0 0 0 0 0 0 0 0 0 0 0 0 0 0 0 0 0 0 0 0 0 0 0 0 0 0 0 0 0 0 0 0 0 0 0 0 0 0 0 0
0 0 0 0 0 0 0 0 0 0 0 0 0 0 0 0 0 0 0 0 0 0 0 0 0 0 0 0 0 0 0 0 0 0 0 0 0 0 0 0 0 0 0
0 0 0 0 0 0 0 0 0 0 0 0 0 0 0 0 0 0 0 0 0 0 0 0 0 0 0 0 0 0 0 0 0 0 0 0 0 0 0 0 0 0 0
0 0 0 0 0 0 0 0 0 0 0 0 0 0 0 0 0 0 0 0 0 0 0 0 0 0 0 0 0 0 0 0 0 0 0 0 0 0 0 0 0 0 0
0 0 0 0 0 0 0 0 0 0 0 0 0 0 0 0 0 0 0 0 0 0 0 0 0 0 0 0 0 0 0 0 0 0 0 0 0 0 0 0 0 0 0
0 0 0 0 0 0 0 0 0 0 0 0 0 0 0 0 0 0 0 0 0 0 0 0 0 0 0 0 0 0 0 0 0 0 0 0 0 0 0 0 0 0 0
0 0 0 0 0 0 0 0 0 0 0 0 0 0 0 0 0 0 0 0 0 0 0 0 0 0 0 0 0 0 0 0 0 0 0 0 0 0 0 0 0 0 0
0 0 0 0 0 0 0 0 0 0 0 0 0 0 0 0 0 0 0 0 0 0 0 0 0 0 0 0 0 0 0 0 0 0 0 0 0 0 0 0 0 0 0
0 0 0 0 0 0 0 0 0 0 0 0 0 0 0 0 0 0 0 0 0 0 0 0 0 0 0 0 0 0 0 0 0 0 0 0 0 0 0 0 0 0 0
0 0 0 0 0 0 0 0 0 0 0 0 0 0 0 0 0 0 0 0 0 0 0 0 0 0 0 0 0 0 0 0 0 0 0 0 0 0 0 0 0 0 0
0 0 0 0 0 0 0 0 0 0 0 0 0 0 0 0 0 0 0 0 0 0 0 0 0 0 0 0 0 0 0 0 0 0 0 0 0 0 0 0 0 0 0
0 0 0 0 0 0 0 0 0 0 0 0 0 0 0 0 0 0 0 0 0 0 0 0 0 0 0 0 0 0 0 0 0 0 0 0 0 0 0 0 0 0 0
0 0 0 0 0 0 0 0 0 0 0 0 0 0 0 0 0 0 0 0 0 0 0 0 0 0 0 0 0 0 0 0 0 0 0 0 0 0 0 0 0 0 0
0 0 0 0 0 0 0 0 0 0 0 0 0 0 0 0 0 0 0 0 0 0 0 0 0 0 0 0 0 0 0 0 0 0 0 0 0 0 0 0 0 0 0
0 0 0 0 0 0 0 0 0 0 0 0 0 0 0 0 0 0 0 0 0 0 0 0 0 0 0 0 0 0 0 0 0 0 0 0 0 0 0 0 0 0 0
0 0 0 0 0 0 0 0 0 0 0 0 0 0 0 0 0 0 0 0 0 0 0 0 0 0 0 0 0 0 0 0 0 0 0 0 0 0 0 0 0 0 0
0 0 0 0 0 0 0 0 0 0 0 0 0 0 0 0 0 0 0 0 0 0 0 0 0 0 0 0 0 0 0 0 0 0 0 0 0 0 0 0 0 0 0
Wind_Speed
3 3 3 3 3 2 2 2 2 2 2 3 3 2 2 2 2 2 2 2 2 2 2 2 3 2 2 2 2 2 3 3 5 5 3 3 3 4 4 4 4 4 5
3 3 3 3 3 3 2 2 2 2 2 2 2 2 2 2 2 2 3 2 3 3 3 3 3 2 3 2 2 3 3 3 4 6 5 3 5 4 5 4 4 4 4
3 3 3 3 3 3 2 2 2 2 2 2 2 2 2 2 2 3 3 3 3 4 4 4 4 3 4 3 3 3 3 3 3 4 5 4 4 3 4 4 4 4 5
3 3 3 3 3 3 2 2 2 2 2 2 2 2 2 2 2 2 2 3 3 3 4 4 4 5 5 5 4 4 3 3 3 4 5 4 4 3 3 3 5 4 5
3 3 3 2 2 2 2 2 2 2 2 2 2 2 2 2 2 2 3 3 3 4 4 4 4 5 6 5 5 4 4 4 3 4 5 4 4 3 3 3 5 5 5
3 3 3 3 2 2 2 2 2 2 2 1 2 2 2 2 3 4 3 3 4 4 4 4 4 5 5 7 8 7 6 6 6 5 5 6 7 5 4 4 4 4 5
3 3 3 3 3 2 2 2 2 2 2 2 2 2 2 3 4 4 4 4 4 4 4 4 4 4 4 5 6 7 8 9 9 7 7 8 7 6 5 5 5 5 6
2 2 2 2 2 2 2 2 2 1 2 2 2 2 3 3 4 5 5 4 3 4 5 5 5 5 5 5 5 6 6 7 8 7 7 8 7 6 5 6 5 5 5
2 1 1 2 2 2 3 3 2 2 2 2 2 2 3 4 5 5 4 3 4 5 5 5 5 6 8 8 6 6 7 7 8 10 10 10 10 8 5 3 3 3 5
2 2 2 2 2 3 3 2 2 2 2 2 2 2 3 4 5 6 5 3 4 4 4 5 6 7 9 9 6 6 8 7 5 6 7 8 7 7 7 5 4 4 3
1 1 2 2 2 2 2 1 1 1 2 2 3 3 3 4 5 6 6 3 4 4 4 4 5 9 10 11 9 7 9 7 5 5 5 4 4 4 4 4 4 4 4
1 1 1 2 2 2 2 2 2 2 2 2 2 3 2 3 4 5 6 6 6 5 5 4 5 9 11 11 9 9 10 7 4 4 4 4 4 4 3 3 3 3 4
1 1 1 1 2 2 2 2 2 2 2 2 2 3 3 2 3 6 6 7 7 5 5 7 9 10 9 8 9 9 6 4 4 4 5 5 4 3 2 2 2 2 2
1 1 1 1 1 1 1 2 2 2 3 3 3 3 3 3 3 3 3 4 5 5 5 6 8 8 7 6 5 5 4 4 4 5 5 4 2 2 2 2 2 2 2
2 2 1 1 1 1 1 2 2 3 3 3 3 3 3 4 5 6 4 3 3 4 4 3 2 3 3 3 3 3 3 3 4 4 3 3 3 3 3 2 2 2 2
2 1 1 1 1 1 1 1 3 3 4 5 5 4 4 5 7 7 7 7 6 5 3 3 3 3 4 4 4 4 3 3 3 3 3 3 3 3 3 2 2 2 3
2 2 2 2 2 2 2 2 2 3 4 5 5 6 6 6 6 6 6 6 5 4 2 3 3 3 4 3 4 4 4 3 3 3 3 3 2 3 3 3 3 2 3
2 2 2 2 2 2 2 2 2 2 3 3 4 6 6 6 6 6 5 4 3 2 2 3 3 3 3 4 4 4 3 3 2 2 2 2 2 2 3 3 3 3 3
2 2 2 2 2 2 2 2 2 3 3 3 2 3 5 6 5 5 3 1 2 3 3 3 3 3 3 3 3 3 3 3 3 2 2 2 2 2 3 3 3 3 3
2 3 3 2 2 2 2 2 3 3 3 3 3 3 2 2 2 3 2 2 3 3 3 4 4 4 3 3 3 3 3 3 3 3 2 2 2 2 3 3 3 3 3
2 2 3 2 2 3 3 3 3 3 3 4 4 4 4 3 3 3 3 3 3 4 4 4 4 4 3 3 3 3 4 3 3 3 3 2 2 2 2 3 3 3 2
2 2 2 3 3 3 3 3 3 3 4 4 4 4 5 3 3 4 4 4 4 3 3 4 4 4 4 3 3 4 4 4 3 3 3 3 2 2 2 2 2 2 2
2 2 2 2 3 3 3 3 3 3 4 4 4 3 3 3 4 4 4 4 3 3 3 3 4 4 3 3 3 4 4 4 4 3 3 3 3 3 2 3 3 3 3
2 3 3 3 2 2 3 3 3 3 4 4 4 4 4 4 4 5 4 4 4 4 3 4 4 5 6 4 3 4 4 4 4 4 5 4 4 3 3 2 3 3 3
2 3 3 3 3 3 3 3 3 3 3 4 4 3 3 4 4 4 4 4 4 4 5 5 4 4 6 6 5 5 5 6 5 4 4 4 4 4 3 3 3 3 3
2 2 2 2 2 2 3 3 3 3 3 4 4 4 4 4 4 4 4 4 4 4 5 4 5 6 6 6 6 6 6 6 6 5 3 3 4 4 3 3 3 3 3
Wind_Direction
160 161 161 164 164 157 155 160 157 147 152 165 170 174 180 183 187 197 201 192 217 237 246 238 247 252 251 255 260 262 259 253 265 284 286 288 273 273 276 266 264 258 263
152 156 159 161 160 158 158 160 147 145 157 165 166 174 194 197 197 205 215 214 224 233 240 245 254 253 249 252 251 257 260 257 262 280 291 291 279 276 275 270 273 269 266
147 153 157 162 161 164 156 153 146 153 160 162 168 188 208 211 212 219 221 224 229 236 234 237 245 243 247 250 249 250 261 274 269 272 284 290 289 295 295 290 283 276 277
150 154 163 166 165 166 154 156 162 166 175 182 192 209 220 224 228 230 244 248 246 249 247 244 243 238 241 241 246 245 252 266 270 269 277 286 288 294 296 297 297 282 278
154 160 169 159 150 149 154 167 171 176 187 187 197 219 225 230 230 233 244 251 251 255 257 254 252 249 252 252 255 250 244 249 262 267 271 281 279 290 282 285 284 297 282
162 167 160 151 152 158 165 178 180 180 182 186 209 218 234 251 258 260 262 255 254 255 262 264 263 253 256 265 268 264 254 248 250 256 263 266 270 274 279 281 287 299 287
171 162 156 158 163 167 172 180 195 201 198 206 225 227 244 256 265 267 273 272 261 258 259 263 272 272 263 261 266 266 261 258 253 251 256 260 265 261 264 267 266 271 272
174 164 154 160 171 173 175 189 208 217 218 225 235 242 254 261 268 270 270 273 266 262 259 257 262 268 266 268 266 266 262 258 258 255 254 259 262 260 252 253 263 277 285
163 166 167 173 185 187 195 206 216 223 236 246 247 247 257 268 267 271 276 267 265 265 264 260 256 259 267 271 268 267 272 272 273 272 271 272 276 273 266 262 259 273 281
196 200 200 198 201 204 211 220 233 231 236 247 261 259 256 267 269 269 269 265 269 274 272 264 257 262 267 263 257 257 265 272 276 283 279 276 272 266 257 239 234 252 271
204 194 204 206 212 214 218 223 224 235 237 246 256 262 257 259 266 267 263 266 263 271 275 275 272 272 271 268 265 260 265 274 269 267 271 274 272 264 256 248 240 238 245
178 205 222 221 218 212 203 217 216 213 227 244 257 270 268 263 266 271 272 272 278 272 273 277 280 283 280 275 270 270 274 275 263 261 262 263 263 263 265 262 259 257 253
200 225 233 233 232 215 203 208 212 212 224 239 248 263 274 270 267 272 275 278 280 279 276 281 287 288 286 279 273 273 269 255 250 253 256 257 257 261 267 283 292 291 300
225 236 230 220 235 219 211 210 214 220 227 233 240 255 268 273 268 270 271 275 281 280 283 285 287 286 286 287 284 276 261 246 244 252 259 262 260 252 245 247 263 279 296
250 246 243 231 224 223 233 232 237 241 236 237 241 244 253 265 271 280 282 272 273 276 295 291 287 290 284 282 282 277 267 262 254 256 258 263 256 247 249 241 243 242 253
255 254 253 246 236 228 235 279 277 271 274 267 269 268 271 279 286 279 281 286 288 293 297 278 276 274 274 277 277 278 269 262 264 261 254 252 253 248 249 248 245 237 250
247 249 249 246 240 232 233 239 272 296 283 279 278 279 282 287 288 288 289 290 290 290 273 266 272 276 277 276 275 273 272 271 267 262 259 255 255 255 247 246 245 249 251
249 243 241 243 243 238 236 240 241 251 279 287 285 284 289 292 296 297 296 299 288 283 271 270 270 273 275 273 273 277 280 282 273 263 260 257 250 254 255 249 243 243 251
247 244 241 242 244 246 243 240 240 241 254 274 292 290 288 291 294 293 292 272 259 269 272 272 271 270 271 270 269 270 272 273 273 266 259 255 251 249 255 255 251 243 245
241 246 242 234 236 241 240 237 239 242 249 254 259 270 284 284 272 276 269 260 256 261 265 269 270 269 267 263 263 263 265 266 268 265 259 254 249 247 252 254 251 252 254
238 240 237 234 231 232 233 234 237 241 248 254 258 263 271 258 255 261 263 261 256 257 261 265 267 268 263 257 254 255 257 260 257 260 260 256 249 247 249 250 253 256 261
228 232 233 233 236 235 235 233 234 239 245 253 266 269 268 264 258 260 262 263 263 262 262 262 263 263 257 252 248 248 250 251 251 249 253 254 251 248 247 247 251 256 255
226 235 242 244 244 242 238 231 231 236 243 246 252 256 254 253 256 260 264 267 267 268 267 263 263 267 267 260 249 240 239 241 240 234 237 242 240 240 238 239 242 249 254
221 229 236 240 243 242 242 244 243 244 247 250 251 251 251 254 259 263 266 270 272 272 270 266 261 263 267 268 260 252 246 243 236 230 226 230 234 236 232 235 238 239 245
226 228 233 237 237 241 247 250 251 250 250 251 253 256 259 260 264 268 270 270 269 270 271 271 268 266 265 264 262 257 254 251 248 234 220 219 225 228 227 232 235 240 241
238 238 239 239 241 243 244 250 256 259 261 261 259 258 258 258 262 266 269 270 275 276 275 273 271 271 271 266 262 261 257 250 243 231 216 216 219 222 220 226 228 233 235